Date,TemperatureHighF,TemperatureAvgF,TemperatureLowF,DewpointHighF,DewpointAvgF,DewpointLowF,HumidityHigh,HumidityAvg,HumidityLow,PressureMaxIn,PressureMinIn,WindSpeedMaxMPH,WindSpeedAvgMPH,GustSpeedMaxMPH,PrecipitationSumIn
2013-7-10,85.0,74.8,71.0,76.0,69.1,-99.9,95,86,71,29.97,29.77,8,3,17,0.22
2013-7-11,83.0,75.1,68.0,74.0,70.4,67.0,97,86,62,29.92,29.76,5,0,10,0.01
2013-7-12,80.0,70.2,63.0,67.0,62.4,58.0,97,78,59,30.16,29.92,9,2,19,0.01
2013-7-13,81.0,71.0,64.0,73.0,66.8,58.0,97,86,76,30.28,30.16,5,0,7,0.11
2013-7-14,91.0,80.0,71.0,75.0,72.2,70.0,98,79,53,30.30,30.18,3,0,10,0.08
2013-7-15,93.0,80.8,70.0,75.0,71.6,69.0,97,76,50,30.20,30.09,4,1,10,0.00
2013-7-16,91.0,79.4,67.0,73.0,69.3,66.0,97,75,45,30.16,30.09,6,1,13,0.00
2013-7-17,94.0,80.3,67.0,74.0,70.5,66.0,97,75,47,30.18,30.00,5,1,11,0.00
2013-7-18,97.0,84.2,71.0,75.0,72.5,69.0,96,71,42,30.01,29.91,4,1,12,0.00
2013-7-19,96.0,84.3,72.0,78.0,73.9,71.0,97,73,47,29.92,29.71,9,3,18,0.00
2013-7-20,90.0,81.1,71.0,76.0,71.4,-99.9,94,74,54,29.80,29.66,6,1,17,0.06
2013-7-21,88.0,75.6,63.0,69.0,64.0,60.0,94,70,39,29.96,29.80,3,0,8,0.06
2013-7-22,86.0,74.0,64.0,71.0,66.9,63.0,97,81,50,29.98,29.82,5,1,12,0.00
2013-7-23,86.0,74.3,71.0,75.0,71.2,69.0,97,91,69,29.83,29.52,8,1,18,2.58
2013-7-24,82.0,73.9,65.0,72.0,65.1,55.0,98,76,54,29.94,29.58,5,1,12,0.50
2013-7-25,65.0,60.3,57.0,59.0,53.6,48.0,95,79,69,30.08,29.94,5,1,14,0.05
2013-7-26,73.0,64.0,59.0,64.0,60.9,58.0,97,90,72,30.05,29.97,3,0,8,0.40
2013-7-27,84.0,69.4,56.0,68.0,61.1,55.0,98,78,45,30.05,29.97,6,1,15,0.01
2013-7-28,84.0,71.1,61.0,69.0,64.4,60.0,97,81,51,29.99,29.93,3,1,8,0.00
2013-7-29,86.0,73.8,64.0,70.0,64.5,59.0,97,75,40,30.04,29.94,7,1,14,0.00
2013-7-30,80.0,69.3,59.0,61.0,59.5,56.0,96,73,45,30.11,30.04,4,1,12,0.00
2013-7-31,83.0,69.6,56.0,63.0,58.7,55.0,96,72,39,30.14,30.02,3,1,9,0.00
2013-8-1,79.0,65.0,56.0,67.0,61.7,55.0,97,89,65,30.03,29.85,7,1,15,0.40